East Milton, MA

4:14 AM EDT on April 30, 2017 (GMT -0400)
East Milton

Weather History for KMQE - February, 2014

Change the Weather History Date:

Tuesday, February 4, 2014

  Actual Average (KOWD) Record (KOWD)
Temperature  
Mean Temperature 24 °F -  
Max Temperature 30 °F 35 °F 57 °F (2016)
Min Temperature 19 °F 17 °F -9 °F (2011)
Degree Days  
Heating Degree Days 40    
Moisture  
Dew Point 18 °F    
Average Humidity 75    
Maximum Humidity 96    
Minimum Humidity 58    
Precipitation  
Precipitation 0.00 in - - ()
Sea Level Pressure  
Sea Level Pressure 30.39 in    
Wind  
Wind Speed 9 mph (WNW)    
Max Wind Speed 14 mph    
Max Gust Speed -    
Averages and records for this station are not official NWS values.
T = Trace of Precipitation, MM = Missing Value Source: NWS Daily Summary

Daily Weather History Graph

Daily Weather History Graph

Search for Another Location

Airport or City:

Trip Planner

Search our weather history database for the weather conditions in past years. The results will help you decide how hot, cold, wet, or windy it might be!

Date:

Astronomy

Feb. 04, 2014 Rise Set
Actual Time 6:54 AM EST 5:02 PM EST
Civil Twilight 6:25 AM EST 5:32 PM EST
Nautical Twilight 5:51 AM EST 6:05 PM EST
Astronomical Twilight 5:18 AM EST 6:38 PM EST
Moon 9:23 AM EST (2/4) 11:01 PM EST (2/4)
Length of Visible Light 11h 07m
Length of Day
10h 08m
Waxing Crescent, 29% of the Moon is Illuminated
Feb 4
Waxing Crescent
Feb 6
First Quarter
Feb 14
Full
Feb 22
Last Quarter
Mar 1
New

Hourly Weather History & Observations

Time (EST) Temp. Windchill Dew Point Humidity Pressure Visibility Wind Dir Wind Speed Gust Speed Precip Events Conditions
12:54 AM 21.9 °F 11.0 °F 21.0 °F 96% 30.29 in - NNW 10.4 mph - N/A   Unknown
1:54 AM 21.9 °F 10.4 °F 19.9 °F 92% 30.31 in - NNW 11.5 mph - N/A   Unknown
2:54 AM 21.0 °F 8.1 °F 18.0 °F 88% 30.33 in - NW 13.8 mph - N/A   Unknown
3:54 AM 19.9 °F 7.3 °F 17.1 °F 89% 30.35 in - NNW 12.7 mph - N/A   Unknown
4:54 AM 19.9 °F 7.3 °F 16.0 °F 85% 30.35 in - NNW 12.7 mph - N/A   Unknown
5:54 AM 19.0 °F 6.8 °F 16.0 °F 88% 30.38 in - NNW 11.5 mph - N/A   Unknown
6:54 AM 19.0 °F 6.1 °F 15.1 °F 85% 30.40 in - NW 12.7 mph - N/A   Unknown
7:54 AM 19.9 °F 7.9 °F 15.1 °F 81% 30.43 in - NNW 11.5 mph - N/A   Unknown
8:54 AM 21.0 °F 9.9 °F 16.0 °F 81% 30.44 in - NNW 10.4 mph - N/A   Unknown
9:54 AM 25.0 °F 16.3 °F 19.0 °F 78% 30.45 in - NNW 8.1 mph - N/A   Unknown
10:54 AM 28.0 °F 22.8 °F 17.1 °F 63% 30.47 in - Variable 4.6 mph - N/A   Unknown
11:54 AM 28.9 °F 23.9 °F 16.0 °F 58% 30.44 in - NW 4.6 mph - N/A   Unknown
12:54 PM 30.9 °F 25.2 °F 18.0 °F 59% 30.40 in - West 5.8 mph - N/A   Unknown
1:54 PM 30.0 °F 25.2 °F 18.0 °F 61% 30.40 in - WSW 4.6 mph - N/A   Unknown
2:54 PM 30.0 °F 25.2 °F 18.0 °F 61% 30.40 in - West 4.6 mph - N/A   Unknown
3:54 PM 30.9 °F 25.2 °F 18.0 °F 59% 30.38 in - WSW 5.8 mph - N/A   Unknown
4:54 PM 30.0 °F - 18.0 °F 61% 30.38 in - Calm Calm - N/A   Unknown
5:54 PM 30.0 °F - 18.0 °F 61% 30.41 in - Calm Calm - N/A   Unknown
6:54 PM 28.9 °F 22.8 °F 18.0 °F 64% 30.42 in - South 5.8 mph - N/A   Unknown
7:54 PM 28.0 °F 20.0 °F 19.9 °F 72% 30.41 in - South 8.1 mph - N/A   Unknown
8:54 PM 28.0 °F 21.7 °F 21.0 °F 75% 30.41 in - South 5.8 mph - N/A   Unknown
9:54 PM 28.0 °F 22.8 °F 21.9 °F 78% 30.41 in - SSW 4.6 mph - N/A   Unknown
10:54 PM 26.1 °F 18.4 °F 21.0 °F 81% 30.39 in - WNW 6.9 mph - N/A   Unknown
11:54 PM 27.0 °F 20.5 °F 19.0 °F 72% 30.34 in - North 5.8 mph - N/A   Unknown